COSMOS 1244

导读

COSMOS 1244(宇宙1244)是苏联(独联体CIS)于1981年2月12日发射的人造卫星,属于大名鼎鼎的宇宙号卫星系列。这是世界上规模最大的卫星家族,绝大多数为军用卫星,统一命名的方式可以隐藏卫星真实任务。作为1980年代初入轨的军用卫星,COSMOS 1244现已完成任务,大概率已退役,目前可能作为空间碎片在轨运行,是冷战时期航天活动的历史见证。

Basic Information
目录编号:
12297
目录名称:
COSMOS 1244
国际标识:
1981-013A
轨道中心:
EARTH
卫星名称:
COSMOS 1244
卫星全名:
--
卫星状态:
在轨 (已飞行16647 天)
发射日期:
1981-02-12 UTC
国别 :
俄罗斯(独联体) (CIS)
星等 :
--
This satellite is enrolled in the Space Conjunction Data Service (SCDS) and the current flight risk assessment level is: No High Risk
Orbit Information
数据来源 国际轨道数据 AOE轨道数据
星历时间 2026-09-11T06:48:38+0800
10小时前
查看轨道信息
2026-09-10T06:00:00+0800
1天前
查看轨道信息
半长轴 7358.912km 7358.874km
偏心率 0.0029322 0.002999
轨道倾角 82.955° 82.957°
近地点辐角 313.432° 316.771°
升交点赤经 22.171° 22.934°
平近点角 186.176° 107.616°
近地点 959.197km 958.667km
远地点 1002.353km 1002.807km
周期 104.708分钟 104.707分钟
每日圈数 13.752522 13.752631
Detailed Information
使用方式:
暂无
2D Orbit Map
3D Orbit Map
Orbit Altitude Analysis Chart
Orbit Inclination Analysis Chart
Orbit Comprehensive Analysis Chart
View Comprehensive Chart
Conjunction Data List
Event ID Objects TCA Miss Dist (km) Collision Risk Probability Collision Risk Index (CRI) Action
CDM_260913-105401-229704-551422
SL-8 DEB (45514)
2026-09-13T
10:54:17+0000
1.989 km
极远距离
2.771776E-6 低风险 0.44
CDM_260912-211701-229703-162823
2026-09-12T
21:17:01+0000
2.594 km
极远距离
1.640907E-6 低风险 0.39
Miss Distance Evolution Trend with All Objects
Collision Probability Evolution Trend with All Objects